Find Starlink 1351

NORAD ID: 45697 Int'l Des: 2020-035 Owner: SPXS Country: US Constellation: starlink operational
LEOCIRCULAR

Live Position

Loading 3D Globe...

About Starlink 1351

Description loading...

Upcoming Passes

Passes for default location (London). Set your location on the main map for personalized predictions.

Altitude History

Loading altitude history...

Two-Line Element Set

1 45697U 20035AS 26105.01218937 .00034928 00000-0 44365-3 0 9997
2 45697 53.0480 205.7909 0006494 319.4951 40.5577 15.59074907325027
Epoch: Apr 15, 2026 • Age: 22 hours

Current Status

Altitude 399.5 km
Velocity 7.67 km/s
Sub-Earth Point 49.83°N, 140.5°E
Launch Date Jun 4, 2020
Age 5.8 years
Type internet

Technical Details

Classification Payload
Mass 260.00 kg
Dry Mass 248.00 kg
Total Mass 260.00 kg
Length 0.20 m
Diameter 2.80 m
Span 9.00 m
Shape Box + pan
Manufacturer SPXS
Bus Type Starlink
Phase Status In Orbit
Owner/State SPXS/US

Most Searched